Вернуться в каталог

SL-8 DEB

АктивенLEO
NORAD 39835·DEBRIS·🇷🇺 Russia

Запущен Feb 12, 1991 с Plesetsk Cosmodrome

Loading…

Ближайшие Пролёты (ближайшие 24 часа)

TLE

УстаревающийSource: Space-Track

Эпоха: Sep 12, 2026, 09:52 UTC

1 39835U 91009DT  26255.41157865  .00000202  00000-0  18747-2 0  9997
2 39835  74.0448  48.8987 0185917 103.5402 258.6421 12.24185830548512

Отслеживайте SL-8 DEB в реальном времени с AllMySat

Download on the App Store